Location: Newark
(45.8667°N, 9.7333°E)
Time: 18:37:37
(UTC+00:00)

A-11 Canister half - Pass Details

Date: 27 January 2020
Orbit: 1517 x 1683 km, 47.2° (Epoch: 26 February)

Event Time Altitude Azimuth Distance (km) Brightness Sun altitude
Rises 02:05:09 0° 278° (W) 4,695 - -48.6°
Reaches altitude 10° 02:08:13 10° 279° (W) 3,699 - -48.1°
Maximum altitude 02:17:33 86° 9° (N) 1,525 - -46.7°
Exits shadow 02:21:24 41° 96° (E) 2,068 9.8 -46.1°
Drops below altitude 10° 02:26:52 10° 99° (E) 3,691 11.4 -45.2°
Sets 02:29:55 0° 100° (E) 4,684 12.1 -44.7°
